Regional Weather Roundup
Issued by NWS

Home | Current Version | Previous Version | Graphics & Text | Print | Product List | Glossary On
Versions: 1 2 3 4 5 6 7 8 9 10 11 12 13 14 15 16 17 18 19 20 21 22 23 24 25 26 27 28 29 30 31 32 33 34 35 36 37 38 39 40 41 42 43 44 45 46 47 48 49 50
000
ASUS43 KBIS 231102
RWRND

NORTH DAKOTA REGIONAL WEATHER ROUNDUP
NATIONAL WEATHER SERVICE BISMARCK ND
600 AM CDT SUN APR 23 2017

NOTE: "FAIR" INDICATES FEW OR NO CLOUDS BELOW 12,000 FEET WITH NO
SIGNIFICANT WEATHER AND/OR OBSTRUCTIONS TO VISIBILITY.


NDZ001>003-009>011-017-231200-
NORTHWEST NORTH DAKOTA

CITY           SKY/WX    TMP DP  RH WIND       PRES   REMARKS
WILLISTON      CLOUDY    34  27  75 E12G21    30.07F
MINOT          CLOUDY    30  19  63 E17       30.15S WCI  18
MINOT AFB      CLOUDY    29  19  66 E16       30.15F WCI  18
$$

NDZ018>021-031>035-040>046-231200-
SOUTHWEST NORTH DAKOTA

CITY           SKY/WX    TMP DP  RH WIND       PRES   REMARKS
BISMARCK       CLOUDY    34  28  79 E22G28    30.08S
DICKINSON      CLOUDY    32  30  92 E21       29.96F WCI  20
GARRISON         N/A     29  27  92 E16G25    30.09F WCI  17
HETTINGER ARPT FOG       34  33  96 E20       29.95F VSB 3/4
$$

NDZ004>008-012>016-024-026-027-054-231200-
NORTHEAST NORTH DAKOTA

CITY           SKY/WX    TMP DP  RH WIND       PRES   REMARKS
GRAND FORKS    CLOUDY    32  22  66 NE16      30.23F
GRND FRKS AFB  CLOUDY    30  19  63 NE13      30.22F WCI  20
DEVILS LAKE    CLOUDY    28  19  69 E16       30.20S WCI  16
$$

NDZ022-023-025-028>030-036>039-047>053-231200-
SOUTHEAST NORTH DAKOTA

CITY           SKY/WX    TMP DP  RH WIND       PRES   REMARKS
FARGO          CLOUDY    34  32  92 N14       30.17S
JAMESTOWN      CLOUDY    29  26  89 NE17      30.14S WCI  17
$$




USA.gov is the U.S. government's official web portal to all federal, state and local government web resources and services.